Weather History for Pitt Meadows, BC

Change the Weather History Date:

Saturday, October 22, 2011

  Actual Average (CYXX) Record (CYXX)
Temperature  
Mean Temperature 50 °F -  
Max Temperature 52 °F 54 °F 69 °F (1998)
Min Temperature 47 °F 40 °F 37 °F (2006)
Degree Days  
Heating Degree Days 16    
Moisture  
Dew Point 49 °F    
Average Humidity 94    
Maximum Humidity 99    
Minimum Humidity 84    
Precipitation  
Precipitation 0.28 in - - ()
Sea Level Pressure  
Sea Level Pressure 30.15 in    
Wind  
Wind Speed 2 mph ()    
Max Wind Speed 7 mph    
Max Gust Speed -    
Averages and records for this station are not official NWS values.
T = Trace of Precipitation, MM = Missing Value Source: Averaged Metar Reports

Daily Weather History Graph

Daily Weather History Graph

Search for Another Location

Airport:

Trip Planner

Search our weather history database for the weather conditions in past years. The results will help you decide how hot, cold, wet, or windy it might be!

Date:

Astronomy

Oct. 22, 2011 Rise Set
Actual Time 7:42 AM PDT 6:07 PM PDT
Civil Twilight 7:09 AM PDT 6:39 PM PDT
Nautical Twilight 6:32 AM PDT 7:16 PM PDT
Astronomical Twilight 5:55 AM PDT 7:53 PM PDT
Moon 2:21 AM PDT (10/22) 3:48 PM PDT (10/22)
Length of Visible Light 11h 30m
Length of Day
10h 25m
Waning Crescent, 22% of the Moon is Illuminated
Oct 22
Waning Crescent
Oct 26
New
Nov 2
First Quarter
Nov 10
Full
Nov 18
Last Quarter

Hourly Weather History & Observations

Time (PDT) Temp. Dew Point Humidity Pressure Visibility Wind Dir Wind Speed Gust Speed Precip Events Conditions
12:00 AM 49.1 °F 48.6 °F 98% 30.21 in - East 1.2 mph - N/A   Unknown
1:00 AM 47.8 °F 47.3 °F 98% 30.22 in - Calm Calm - N/A   Unknown
2:00 AM 49.3 °F 48.6 °F 97% 30.22 in - East 1.2 mph - N/A   Unknown
3:00 AM 49.3 °F 48.6 °F 97% 30.22 in - NW 1.2 mph - N/A   Unknown
4:00 AM 49.1 °F 48.2 °F 97% 30.19 in - East 2.3 mph - N/A   Unknown
5:00 AM 49 °F 48 °F 95% 30.18 in - West 2.3 mph - -  
5:00 AM 48.7 °F 48.0 °F 97% 30.18 in - West 2.3 mph - N/A   Unknown
6:00 AM 49.3 °F 48.7 °F 98% 30.17 in - West 2.3 mph - 0.02 in   Unknown
7:00 AM 49.1 °F 48.4 °F 97% 30.16 in - NNW 1.2 mph - 0.06 in   Unknown
8:00 AM 49.3 °F 48.6 °F 97% 30.14 in - NNE 6.9 mph - 0.09 in   Unknown
9:00 AM 48.9 °F 48.0 °F 97% 30.12 in - East 6.9 mph - 0.09 in   Unknown
10:00 AM 51.3 °F 48.6 °F 90% 30.14 in - North 3.5 mph - 0.02 in   Unknown
11:00 AM 51 °F 48 °F 84% 30.13 in - ENE 2.3 mph - -  
11:00 AM 50.5 °F 47.7 °F 90% 30.13 in - ENE 2.3 mph - N/A   Unknown
12:00 PM 51.3 °F 49.1 °F 92% 30.14 in - North 3.5 mph - 0.02 in   Unknown
1:00 PM 51.4 °F 47.8 °F 87% 30.13 in - North 2.3 mph - N/A   Unknown
2:00 PM 50.5 °F 48.2 °F 92% 30.13 in - NNE 2.3 mph - 0.04 in   Unknown
3:00 PM 50.9 °F 47.8 °F 89% 30.12 in - NNE 2.3 mph - N/A   Unknown
4:00 PM 52.2 °F 50.2 °F 93% 30.11 in - NE 1.2 mph - N/A   Unknown
5:00 PM 52 °F 50 °F 92% 30.11 in - North 2.3 mph - -  
5:00 PM 52.2 °F 50.4 °F 94% 30.11 in - North 2.3 mph - N/A   Unknown
6:00 PM 51.8 °F 49.6 °F 92% 30.11 in - NW 1.2 mph - N/A   Unknown
7:00 PM 51.8 °F 50.0 °F 94% 30.10 in - Calm Calm - N/A   Unknown
8:00 PM 51.4 °F 50.0 °F 95% 30.11 in - ENE 1.2 mph - N/A   Unknown
9:00 PM 48.9 °F 48.0 °F 97% 30.12 in - North 2.3 mph - N/A   Unknown
10:00 PM 48.0 °F 47.5 °F 98% 30.14 in - ESE 2.3 mph - N/A   Unknown
11:00 PM 48 °F 48 °F 98% 30.15 in - East 1.2 mph - -  
11:00 PM 48.0 °F 47.7 °F 99% 30.15 in - East 1.2 mph - N/A   Unknown